Location: *
(43.6428°N, 11.5461°E)
Time: 16:42:28
(UTC+00:00)

FengYun 1-2 T - Pass Details

Date: 21 October 2019
Orbit: 846 x 882 km, 98.7° (Epoch: 20 November)

Event Time Altitude Azimuth Distance (km) Brightness Sun altitude
Rises 16:59:47 0° 151° (SSE) 3,463 7.2 -7.6°
Reaches altitude 10° 17:02:13 10° 148° (SSE) 2,525 6.4 -8.1°
Maximum altitude 17:07:42 57° 71° (ENE) 1,023 4.3 -9.1°
Drops below altitude 10° 17:13:10 10° 354° (N) 2,521 6.7 -10.1°
Sets 17:15:35 0° 351° (N) 3,457 7.4 -10.5°
